Lakeville, MN

5:22 PM CDT on March 29, 2017 (GMT -0500)
Airlake

Weather History for KLVN - August, 2012

Change the Weather History Date:

Friday, August 31, 2012

  Actual Average Record
Temperature  
Mean Temperature 68 °F -  
Max Temperature 80 °F 77 °F 92 °F (1953)
Min Temperature 57 °F 55 °F 42 °F (1974)
Cooling Degree Days 4    
Growing Degree Days 18 (Base 50)    
Moisture  
Dew Point 54 °F    
Average Humidity 59    
Maximum Humidity 88    
Minimum Humidity 32    
Precipitation  
Precipitation 0.00 in - - ()
Sea Level Pressure  
Sea Level Pressure 30.06 in    
Wind  
Wind Speed 5 mph (NNE)    
Max Wind Speed 9 mph    
Max Gust Speed -    
Visibility 10 miles    
Events      
Averages and records for this station are not official NWS values.
T = Trace of Precipitation, MM = Missing Value Source: NWS Daily Summary

Daily Weather History Graph

Daily Weather History Graph

Search for Another Location

Airport or City:

Trip Planner

Search our weather history database for the weather conditions in past years. The results will help you decide how hot, cold, wet, or windy it might be!

Date:

Astronomy

Aug. 31, 2012 Rise Set
Actual Time 6:34 AM CDT 7:50 PM CDT
Civil Twilight 6:04 AM CDT 8:20 PM CDT
Nautical Twilight 5:28 AM CDT 8:56 PM CDT
Astronomical Twilight 4:49 AM CDT 9:34 PM CDT
Moon 7:32 PM CDT (8/31) 6:43 AM CDT (8/31)
Length of Visible Light 14h 15m
Length of Day
13h 15m
Full, 100% of the Moon is Illuminated
Aug 31
Full
Sep 8
Last Quarter
Sep 15
New
Sep 22
First Quarter
Sep 29
Full

Hourly Weather History & Observations

Time (CDT) Temp. Dew Point Humidity Pressure Visibility Wind Dir Wind Speed Gust Speed Precip Events Conditions
12:12 AM 71.6 °F 64.4 °F 78% 29.94 in 10.0 mi North 5.8 mph - N/A   Clear
12:32 AM 69.8 °F 62.6 °F 78% 29.94 in 10.0 mi North 5.8 mph - N/A   Clear
12:52 AM 69.8 °F 60.8 °F 73% 29.95 in 10.0 mi North 5.8 mph - N/A   Clear
1:12 AM 69.8 °F 60.8 °F 73% 29.96 in 10.0 mi North 5.8 mph - N/A   Clear
1:32 AM 69.8 °F 60.8 °F 73% 29.97 in 10.0 mi North 5.8 mph - N/A   Clear
1:52 AM 69.8 °F 59.0 °F 68% 29.97 in 10.0 mi North 4.6 mph - N/A   Clear
2:12 AM 68.0 °F 57.2 °F 68% 29.98 in 10.0 mi NNW 5.8 mph - N/A   Clear
2:32 AM 68.0 °F 57.2 °F 68% 29.98 in 10.0 mi North 6.9 mph - N/A   Clear
2:52 AM 68.0 °F 55.4 °F 64% 29.99 in 10.0 mi North 8.1 mph - N/A   Clear
3:12 AM 68.0 °F 55.4 °F 64% 30.00 in 10.0 mi North 5.8 mph - N/A   Clear
3:32 AM 68.0 °F 57.2 °F 68% 30.00 in 10.0 mi North 6.9 mph - N/A   Clear
3:52 AM 66.2 °F 55.4 °F 68% 30.01 in 10.0 mi North 6.9 mph - N/A   Clear
4:12 AM 66.2 °F 55.4 °F 68% 30.02 in 10.0 mi North 5.8 mph - N/A   Clear
4:32 AM 66.2 °F 55.4 °F 68% 30.02 in 10.0 mi North 5.8 mph - N/A   Clear
4:52 AM 64.4 °F 55.4 °F 73% 30.03 in 10.0 mi North 5.8 mph - N/A   Clear
5:12 AM 64.4 °F 55.4 °F 73% 30.03 in 10.0 mi North 4.6 mph - N/A   Clear
5:32 AM 62.6 °F 55.4 °F 77% 30.04 in 10.0 mi North 4.6 mph - N/A   Clear
5:52 AM 62.6 °F 55.4 °F 77% 30.04 in 10.0 mi North 4.6 mph - N/A   Clear
6:12 AM 60.8 °F 53.6 °F 77% 30.05 in 10.0 mi North 4.6 mph - N/A   Clear
6:32 AM 60.8 °F 55.4 °F 82% 30.05 in 10.0 mi North 5.8 mph - N/A   Clear
6:52 AM 60.8 °F 55.4 °F 82% 30.06 in 10.0 mi North 6.9 mph - N/A   Clear
7:12 AM 60.8 °F 55.4 °F 82% 30.07 in 10.0 mi North 5.8 mph - N/A   Clear
7:32 AM 62.6 °F 55.4 °F 77% 30.08 in 10.0 mi North 5.8 mph - N/A   Clear
7:52 AM 62.6 °F 55.4 °F 77% 30.09 in 10.0 mi North 6.9 mph - N/A   Clear
8:12 AM 64.4 °F 55.4 °F 73% 30.09 in 10.0 mi North 9.2 mph - N/A   Clear
8:32 AM 66.2 °F 55.4 °F 68% 30.10 in 10.0 mi North 6.9 mph - N/A   Clear
8:52 AM 66.2 °F 55.4 °F 68% 30.10 in 10.0 mi NNE 9.2 mph - N/A   Clear
9:12 AM 68.0 °F 55.4 °F 64% 30.10 in 10.0 mi NE 6.9 mph - N/A   Clear
9:32 AM 69.8 °F 55.4 °F 60% 30.11 in 10.0 mi NNE 6.9 mph - N/A   Clear
9:52 AM 71.6 °F 55.4 °F 57% 30.11 in 10.0 mi NE 5.8 mph - N/A   Clear
10:12 AM 73.4 °F 53.6 °F 50% 30.11 in 10.0 mi NE 5.8 mph - N/A   Clear
10:32 AM 73.4 °F 53.6 °F 50% 30.11 in 10.0 mi NE 6.9 mph - N/A   Clear
10:52 AM 75.2 °F 53.6 °F 47% 30.10 in 10.0 mi NE 6.9 mph - N/A   Clear
11:12 AM 75.2 °F 51.8 °F 44% 30.10 in 10.0 mi NE 8.1 mph - N/A   Clear
11:32 AM 77.0 °F 50.0 °F 39% 30.10 in 10.0 mi NE 6.9 mph - N/A   Clear
11:52 AM 77.0 °F 48.2 °F 36% 30.10 in 10.0 mi NNE 9.2 mph - N/A   Clear
12:12 PM 78.8 °F 48.2 °F 34% 30.10 in 10.0 mi NE 6.9 mph - N/A   Clear
12:32 PM 77.0 °F 48.2 °F 36% 30.10 in 10.0 mi NE 6.9 mph - N/A   Clear
12:52 PM 77.0 °F 51.8 °F 41% 30.10 in 10.0 mi ENE 5.8 mph - N/A   Clear
1:12 PM 78.8 °F 50.0 °F 36% 30.10 in 10.0 mi East 5.8 mph - N/A   Clear
1:32 PM 78.8 °F 51.8 °F 39% 30.09 in 10.0 mi East 6.9 mph - N/A   Clear
1:52 PM 80.6 °F 51.8 °F 37% 30.09 in 10.0 mi ENE 6.9 mph - N/A   Clear
2:12 PM 78.8 °F 51.8 °F 39% 30.09 in 10.0 mi ENE 3.5 mph - N/A   Clear
2:32 PM 78.8 °F 51.8 °F 39% 30.09 in 10.0 mi ENE 6.9 mph - N/A   Clear
2:52 PM 78.8 °F 51.8 °F 39% 30.09 in 10.0 mi ENE 4.6 mph - N/A   Clear
3:12 PM 80.6 °F 51.8 °F 37% 30.08 in 10.0 mi ENE 4.6 mph - N/A   Clear
3:32 PM 78.8 °F 50.0 °F 36% 30.08 in 10.0 mi NE 5.8 mph - N/A   Clear
3:52 PM 78.8 °F 50.0 °F 36% 30.08 in 10.0 mi ENE 6.9 mph - N/A   Clear
4:12 PM 78.8 °F 51.8 °F 39% 30.08 in 10.0 mi ENE 4.6 mph - N/A   Clear
4:32 PM 78.8 °F 53.6 °F 42% 30.08 in 10.0 mi Calm Calm - N/A   Clear
4:52 PM 80.6 °F 51.8 °F 37% 30.07 in 10.0 mi North 6.9 mph - N/A   Clear
5:12 PM 80.6 °F 48.2 °F 32% 30.07 in 10.0 mi NNE 5.8 mph - N/A   Clear
5:32 PM 80.6 °F 51.8 °F 37% 30.07 in 10.0 mi Calm Calm - N/A   Clear
5:52 PM 78.8 °F 51.8 °F 39% 30.07 in 10.0 mi NE 4.6 mph - N/A   Clear
6:12 PM 78.8 °F 51.8 °F 39% 30.06 in 10.0 mi NE 3.5 mph - N/A   Clear
6:32 PM 77.0 °F 50.0 °F 39% 30.06 in 10.0 mi NE 3.5 mph - N/A   Clear
6:52 PM 75.2 °F 53.6 °F 47% 30.07 in 10.0 mi NE 3.5 mph - N/A   Clear
7:12 PM 71.6 °F 53.6 °F 53% 30.07 in 10.0 mi NE 4.6 mph - N/A   Clear
7:32 PM 69.8 °F 53.6 °F 56% 30.08 in 5.0 mi NE 4.6 mph - N/A   Haze
7:52 PM 68.0 °F 55.4 °F 64% 30.08 in 10.0 mi East 3.5 mph - N/A   Clear
8:12 PM 64.4 °F 55.4 °F 73% 30.08 in 10.0 mi Calm Calm - N/A   Clear
8:32 PM 62.6 °F 55.4 °F 77% 30.09 in 10.0 mi Calm Calm - N/A   Clear
8:52 PM 64.4 °F 53.6 °F 68% 30.10 in 10.0 mi Calm Calm - N/A   Clear
9:12 PM 64.4 °F 51.8 °F 64% 30.10 in 10.0 mi Calm Calm - N/A   Clear
9:32 PM 62.6 °F 50.0 °F 63% 30.10 in 10.0 mi Calm Calm - N/A   Clear
9:52 PM 60.8 °F 55.4 °F 82% 30.10 in 10.0 mi Calm Calm - N/A   Clear
10:12 PM 60.8 °F 53.6 °F 77% 30.10 in 10.0 mi NNE 3.5 mph - N/A   Clear
10:32 PM 62.6 °F 51.8 °F 68% 30.11 in 10.0 mi Calm Calm - N/A   Clear
10:52 PM 60.8 °F 50.0 °F 68% 30.11 in 10.0 mi Calm Calm - N/A   Clear
11:12 PM 62.6 °F 50.0 °F 63% 30.11 in 10.0 mi Calm Calm - N/A   Clear
11:32 PM 57.2 °F 53.6 °F 88% 30.11 in 10.0 mi Calm Calm - N/A   Clear
11:52 PM 57.2 °F 51.8 °F 82% 30.11 in 10.0 mi Calm Calm - N/A   Clear